Location: Esp�s Alto
(42.4476°N, 0.5876°E)
Time: 20:10:58
(UTC+00:00)

USA 234 - Pass Details

Date: 22 October 2019
Orbit: 1102 x 1106 km, 123.0° (Epoch: 12 November)

Event Time Altitude Azimuth Distance (km) Brightness Sun altitude
Rises 03:32:11 0° 112° (ESE) 3,913 6.9 -31.2°
Reaches altitude 10° 03:34:43 10° 108° (ESE) 2,957 6.2 -30.7°
Maximum altitude 03:41:03 56° 32° (NNE) 1,299 3.7 -29.6°
Enters shadow 03:43:48 34° 333° (NNW) 1,745 4.1 -29.1°
